Location: Brahman Valley
(40.6513°N, 111.8855°W)
Time: 01:50:41
(UTC+00:00)

A-11 Canister half - All Passes

Search period start: 12 May 2021 00:00
Search period end: 22 May 2021 00:00
Orbit: 1526 x 1683 km, 47.3° (Epoch: 11 May)

Date Brightness Start Highest point End Pass type
(mag) Time Alt. Az. Time Alt. Az. Time Alt. Az.
12 May - 00:01:58 10° WNW 00:11:09 42° SW 00:20:25 10° SSE daylight
12 May - 15:19:17 10° SSW 15:28:01 44° SE 15:37:01 10° ENE daylight
12 May - 17:23:01 10° WSW 17:32:37 80° NNW 17:42:37 10° ENE daylight
12 May - 19:29:03 10° W 19:38:41 59° N 19:48:36 10° E daylight
12 May - 21:34:46 10° WNW 21:44:45 81° NNE 21:54:57 10° ESE daylight
12 May - 23:40:13 10° WNW 23:49:31 44° SW 23:58:53 10° SSE daylight
13 May - 14:57:48 10° SSW 15:06:24 42° SE 15:15:16 10° ENE daylight
13 May - 17:01:21 10° WSW 17:10:56 82° NNW 17:20:54 10° ENE daylight
13 May - 19:07:20 10° W 19:16:56 59° N 19:26:51 10° ENE daylight
13 May - 21:13:05 10° WNW 21:23:03 79° NNE 21:33:14 10° ESE daylight
13 May - 23:18:30 10° WNW 23:27:52 47° SW 23:37:21 10° SSE daylight
14 May - 01:29:20 10° WSW 01:31:07 11° WSW 01:32:55 10° SW daylight
14 May - 14:36:19 10° SSW 14:44:48 39° SE 14:53:31 10° ENE daylight
14 May - 16:39:42 10° WSW 16:49:15 84° NNW 16:59:11 10° ENE daylight
14 May - 18:45:38 10° W 18:55:12 59° N 19:05:05 10° ENE daylight
14 May - 20:51:24 10° WNW 21:01:20 77° NNE 21:11:30 10° ESE daylight
14 May - 22:56:48 10° WNW 23:06:13 49° SW 23:15:47 10° SSE daylight
15 May - 01:06:28 10° WSW 01:09:33 12° WSW 01:12:39 10° SW daylight
15 May - 14:14:52 10° SSW 14:23:12 37° SE 14:31:46 10° ENE daylight
15 May - 16:18:02 10° WSW 16:27:34 86° NNW 16:37:29 10° ENE daylight
15 May - 18:23:55 10° W 18:33:28 59° N 18:43:20 10° ENE daylight
15 May - 20:29:44 10° WNW 20:39:38 76° NNE 20:49:46 10° ESE daylight
15 May - 22:35:05 10° WNW 22:44:34 51° SW 22:54:13 10° SSE daylight
16 May - 00:44:03 10° W 00:47:58 13° WSW 00:51:55 10° SW daylight
16 May - 13:53:25 10° SSW 14:01:36 35° SE 14:09:59 10° ENE daylight
16 May - 15:56:23 10° WSW 16:05:54 89° NNW 16:15:46 10° ENE daylight
16 May - 18:02:13 10° W 18:11:44 60° N 18:21:35 10° ENE daylight
16 May - 20:08:03 10° WNW 20:17:55 74° NNE 20:28:01 10° ESE daylight
16 May - 22:13:23 10° WNW 22:22:55 53° SW 22:32:38 10° SSE daylight
17 May - 00:21:48 10° W 00:26:23 14° WSW 00:31:00 10° SSW daylight
17 May - 13:31:59 10° S 13:40:01 33° SE 13:48:14 10° ENE daylight
17 May - 15:34:45 10° WSW 15:44:13 89° SSE 15:54:03 10° ENE daylight
17 May - 17:40:31 10° W 17:50:00 60° N 17:59:50 10° ENE daylight
17 May - 19:46:23 10° WNW 19:56:12 72° NNE 20:06:16 10° ESE daylight
17 May - 21:51:41 10° WNW 22:01:16 56° SW 22:11:03 10° SE daylight
17 May - 23:59:40 10° W 00:04:48 15° WSW 00:09:58 10° SSW daylight
18 May - 13:10:35 10° S 13:18:25 31° SE 13:26:26 10° ENE daylight
18 May - 15:13:07 10° WSW 15:22:33 86° SSE 15:32:22 10° ENE daylight
18 May - 17:18:48 10° W 17:28:17 60° N 17:38:05 10° ENE daylight
18 May - 19:24:42 10° WNW 19:34:28 71° NNE 19:44:32 10° ESE daylight
18 May - 21:30:00 10° WNW 21:39:36 58° SW 21:49:26 10° SE daylight
18 May - 23:37:37 10° W 23:43:13 17° WSW 23:48:51 10° SSW daylight
19 May - 12:49:11 10° S 12:56:50 30° SE 13:04:39 10° ENE daylight
19 May - 14:51:29 10° SW 15:00:54 84° SSE 15:10:39 10° ENE daylight
19 May - 16:57:07 10° W 17:06:33 61° N 17:16:20 10° ENE daylight
19 May - 19:03:02 10° WNW 19:12:45 69° NNE 19:22:47 10° E daylight
19 May - 21:08:19 10° WNW 21:17:57 61° SW 21:27:50 10° SE daylight
19 May - 23:15:38 10° W 23:21:37 18° SW 23:27:41 10° SSW daylight
20 May - 12:27:48 10° S 12:35:16 28° SE 12:42:52 10° ENE daylight
20 May - 14:29:52 10° SW 14:39:14 81° SSE 14:48:57 10° ENE daylight
20 May - 16:35:25 10° W 16:44:50 61° N 16:54:35 10° ENE daylight
20 May - 18:41:22 10° WNW 18:51:02 68° NNE 19:01:02 10° E daylight
20 May - 20:46:37 10° WNW 20:56:18 63° SW 21:06:13 10° SE daylight
20 May - 22:53:40 10° W 23:00:02 19° SW 23:06:28 10° SSW daylight
21 May - 12:06:26 10° S 12:13:41 26° SE 12:21:03 10° ENE daylight
21 May - 14:08:15 10° SW 14:17:35 78° SSE 14:27:15 10° ENE daylight
21 May - 16:13:43 10° W 16:23:07 62° N 16:32:51 10° ENE daylight
21 May - 18:19:41 10° WNW 18:29:19 67° NNE 18:39:16 10° E daylight
21 May - 20:24:57 10° WNW 20:34:38 66° SW 20:44:34 10° SE daylight
21 May - 22:31:46 10° W 22:38:26 21° SW 22:45:12 10° SSW daylight
